Theta_e
308 310 309 312 316 319 321 320 319 319 318 315 315 316 318 321 321 321 321 322 322 324 325 325 325 325 325 323 323 325 323 324 323 322 328 336 339 338 338 337 338 338 337 340 346 347 347 349 349 348 346 344 343 343 342 342 341 342 341 339 338 335 334 332 330 327 322 319 317 316 316 314 315 318 319 319 319 320 321 325 330 332 332 330 326 323 322 322 323 323 323 323 322 322 322 322 323
311 316 315 314 318 319 321 321 318 317 317 314 316 317 318 321 320 321 321 321 322 323 325 324 324 323 324 323 322 323 322 324 323 324 334 337 337 337 338 340 339 337 336 339 344 347 348 349 350 348 346 344 343 343 342 342 342 342 341 339 338 335 334 332 330 326 321 318 316 316 316 315 317 319 319 319 320 320 322 327 332 332 330 327 324 322 321 320 321 321 321 321 321 321 321 322 323
313 319 317 315 317 319 321 321 318 315 315 314 316 320 321 321 320 321 322 322 323 323 323 323 324 323 322 321 321 321 321 322 322 322 331 335 336 337 337 341 342 337 336 341 343 344 348 349 349 348 346 344 344 343 342 341 342 342 341 339 337 335 334 332 329 325 320 317 316 316 315 316 318 319 319 319 321 321 324 330 333 332 328 324 323 321 321 320 320 320 319 319 319 320 320 321 322
312 316 316 315 317 319 320 320 320 317 314 314 314 320 322 322 322 322 322 323 323 322 321 322 321 321 321 320 320 320 321 321 322 322 329 332 334 336 337 340 343 340 336 338 343 343 346 348 349 347 346 345 343 342 341 341 341 342 341 339 337 335 334 332 329 323 319 317 316 316 316 317 319 319 319 320 321 323 327 332 333 331 327 323 322 321 320 319 319 319 319 319 319 320 321 322 322
312 314 316 316 317 319 320 319 320 318 316 316 315 320 322 321 323 321 321 322 321 321 320 321 320 320 320 319 320 319 320 320 324 325 327 331 332 335 337 339 343 346 341 336 343 345 344 346 348 347 345 343 342 341 340 340 341 342 341 339 336 335 334 331 328 322 318 316 315 315 316 317 319 319 318 320 323 326 330 333 333 332 328 323 321 320 320 319 320 320 320 320 321 321 321 322 323
312 315 316 317 317 319 319 318 317 317 319 321 319 320 322 321 322 321 321 321 321 321 320 320 320 320 319 320 320 319 320 320 324 327 327 329 330 332 336 339 340 347 345 338 343 343 343 346 346 347 345 342 340 339 339 340 341 342 341 339 336 335 334 331 327 321 318 316 315 315 316 317 319 318 319 320 324 329 332 333 333 333 330 323 319 319 320 320 321 321 322 323 322 323 322 323 323
316 316 316 316 317 318 318 317 317 317 319 321 320 321 322 321 322 321 321 321 321 320 320 320 319 319 319 320 320 320 322 323 326 330 330 329 330 331 335 339 339 346 346 339 341 339 342 346 344 346 344 340 338 337 338 339 341 342 341 339 337 336 334 331 327 320 317 315 314 316 316 318 318 318 319 320 325 330 333 333 333 334 330 322 318 319 320 321 322 322 323 324 324 324 324 324 324
317 316 317 316 316 318 317 317 318 318 319 320 321 321 321 320 321 320 320 320 320 321 320 320 319 319 319 320 320 321 327 329 332 331 332 331 331 329 332 337 339 345 345 342 343 339 342 346 343 344 341 338 336 336 337 339 341 341 341 339 336 336 334 332 327 320 317 315 315 317 317 318 318 318 319 321 327 331 332 332 333 333 327 320 318 319 320 321 322 323 323 324 324 325 325 326 327
315 315 317 316 316 317 316 316 317 319 319 320 320 321 321 320 320 319 319 320 320 321 320 320 320 320 320 321 320 323 329 332 334 332 333 334 331 330 332 337 340 345 345 346 347 343 342 345 342 340 338 336 335 335 337 339 341 342 341 339 337 337 335 332 327 319 316 315 316 317 317 318 318 318 319 323 329 331 331 332 333 331 323 319 320 321 322 323 324 324 325 325 325 325 326 326 327
315 316 317 318 317 316 314 315 317 319 319 320 320 321 321 320 320 320 319 319 320 320 320 320 319 319 319 320 320 325 330 331 333 333 334 334 330 332 336 336 338 342 343 345 348 344 341 344 343 338 336 335 335 335 337 339 341 342 341 338 337 337 334 333 327 319 316 315 316 317 318 318 318 319 321 326 329 330 330 332 332 326 320 320 322 324 325 326 327 327 327 328 328 328 328 329 329
316 316 317 317 316 315 314 315 316 319 320 320 321 320 320 320 319 320 319 319 320 319 320 319 319 319 319 320 319 323 329 330 332 333 334 334 330 333 337 335 335 339 341 344 346 345 344 345 342 337 335 335 335 336 338 340 341 341 340 338 337 337 334 333 328 319 316 315 316 318 318 318 318 320 323 328 329 329 329 331 331 324 321 323 324 326 328 328 329 329 330 330 331 330 331 331 332
316 317 317 315 314 314 315 315 316 318 320 320 320 319 320 320 319 318 318 319 319 319 320 319 319 319 319 320 319 322 328 329 331 331 332 333 331 331 335 336 337 340 342 345 347 348 346 344 342 337 335 334 334 337 338 339 341 341 340 338 337 336 331 333 329 318 316 315 317 318 318 319 319 322 326 328 329 328 329 330 330 324 322 325 326 327 328 329 329 330 331 331 331 331 331 331 332
316 317 317 315 315 315 315 315 316 318 319 319 318 319 319 318 318 318 318 318 318 319 318 318 318 318 319 319 320 321 325 327 329 331 332 333 333 331 335 337 339 342 344 345 347 350 348 345 341 337 334 335 335 337 339 340 341 341 340 338 338 335 330 333 329 318 316 315 317 318 318 319 320 324 327 328 328 328 329 330 330 326 324 325 326 327 328 329 329 330 331 331 331 331 331 330 330
317 317 317 316 317 317 316 315 316 317 317 318 318 318 318 318 318 318 317 317 317 318 318 317 318 318 318 318 319 320 323 326 327 330 332 333 334 332 336 339 338 341 343 342 341 343 345 346 343 339 335 334 338 341 340 340 341 341 340 338 338 335 332 335 328 317 316 315 317 318 318 320 322 326 327 327 327 328 330 332 332 330 327 326 326 327 327 328 329 330 331 331 331 330 330 330 330
316 317 317 316 316 316 316 316 316 315 316 317 317 318 318 317 317 317 317 317 317 318 317 317 317 317 317 318 319 320 324 326 328 331 332 334 337 335 340 343 342 343 343 344 340 337 339 342 342 341 340 337 341 344 343 342 341 341 340 338 338 336 334 336 328 318 316 315 317 318 319 320 323 326 327 327 327 329 332 333 333 332 331 328 328 327 328 329 330 331 331 331 330 330 329 329 327
316 316 316 316 314 314 315 317 317 315 316 317 317 318 317 317 317 317 317 317 317 317 317 317 317 317 317 318 320 323 327 328 328 329 332 338 340 341 346 347 345 346 345 346 344 343 343 340 337 339 342 343 344 345 344 344 341 339 340 338 338 337 336 337 329 318 315 315 317 318 319 321 324 327 326 326 326 329 332 332 332 333 332 331 330 329 329 330 331 331 331 330 330 329 328 327 326
316 315 315 315 314 314 315 317 316 315 316 318 318 318 316 316 317 317 317 316 316 316 316 317 317 317 317 319 322 326 328 328 324 325 334 341 341 342 346 345 345 346 344 345 345 346 346 341 338 338 339 340 343 345 344 344 342 340 340 339 338 338 338 337 331 320 315 315 317 319 320 322 325 327 327 327 326 328 330 331 330 331 333 332 331 331 331 330 331 331 331 330 330 329 328 327 327
315 315 314 314 315 315 316 317 316 316 316 317 317 317 316 316 317 316 316 316 317 317 316 317 317 317 318 319 321 324 328 328 326 331 341 345 344 342 343 341 340 343 343 343 344 345 345 343 341 339 337 335 336 342 344 343 343 340 340 339 338 340 339 336 332 321 315 315 317 319 320 322 325 327 328 327 326 327 328 329 328 329 331 332 332 332 331 331 331 331 330 330 329 328 328 328 330
314 316 315 315 316 316 317 317 316 316 316 317 316 317 316 316 316 316 315 316 316 316 317 317 317 317 319 319 319 323 329 332 334 339 344 345 344 342 343 340 333 338 344 343 343 344 344 344 344 341 338 335 331 334 341 343 343 341 340 341 340 339 338 336 331 322 315 315 318 319 320 322 325 327 328 327 326 327 328 328 328 328 330 331 332 331 331 331 331 331 331 330 329 329 330 330 332
315 316 316 316 317 317 318 317 317 317 316 316 317 316 316 316 316 315 315 315 315 316 317 317 317 318 318 318 317 321 329 334 338 342 344 344 344 342 342 342 336 338 345 343 342 342 342 343 345 343 339 338 332 329 335 339 340 341 340 340 338 337 337 336 331 322 316 315 317 319 320 322 324 328 329 326 325 327 328 328 328 328 329 330 331 331 331 331 331 331 330 330 330 331 332 331 333
316 315 315 317 316 317 318 317 317 317 316 316 315 315 315 316 316 316 315 315 314 316 317 317 317 317 317 317 315 320 329 335 338 341 343 343 343 342 341 342 341 341 344 344 342 342 342 341 341 342 340 339 335 329 330 331 332 337 339 337 335 335 335 333 328 321 316 315 317 318 320 322 324 328 331 327 325 327 328 328 328 328 328 329 330 331 331 331 331 331 330 331 331 331 332 332 332
315 315 316 317 316 316 317 317 317 316 316 315 315 315 315 316 316 316 316 315 315 316 317 316 317 316 317 316 317 323 330 335 337 338 341 342 342 342 341 342 342 342 343 342 342 341 341 341 340 340 340 338 336 333 329 328 331 336 335 333 332 331 330 328 326 320 316 315 316 318 319 323 325 328 330 327 324 326 328 328 328 328 328 328 330 330 331 332 331 331 330 331 332 331 331 332 332
315 316 317 318 316 316 316 317 317 316 316 315 316 316 316 316 315 316 316 315 315 316 316 316 316 316 317 316 321 329 333 336 338 339 340 341 340 340 340 341 341 341 341 340 340 340 340 340 340 341 340 338 338 336 329 327 333 333 329 328 328 325 324 324 323 319 316 315 316 317 318 323 327 329 331 328 325 325 326 328 327 328 328 328 329 330 331 332 332 332 331 331 332 332 331 332 331
315 316 318 318 317 317 316 316 316 316 316 316 316 316 316 315 315 316 316 316 316 316 317 316 316 316 316 319 325 332 335 335 336 337 338 338 338 337 338 339 339 339 339 338 339 340 339 339 340 340 340 339 339 338 331 326 330 330 326 326 326 323 321 320 320 318 316 315 315 317 320 324 329 332 331 327 327 325 325 327 327 328 328 329 328 329 333 333 333 334 333 333 332 332 330 331 332
317 317 319 318 318 318 318 317 317 317 317 317 317 316 316 316 316 316 316 316 316 317 316 315 316 316 316 318 323 330 335 334 334 334 334 336 336 337 337 337 339 338 337 338 338 339 339 339 339 338 337 338 338 336 332 329 329 329 328 327 325 324 322 318 317 316 315 315 314 319 324 327 332 335 330 326 328 327 325 326 327 328 330 333 330 329 335 334 333 335 334 333 332 332 331 331 332
318 318 319 319 318 319 318 318 318 318 318 318 317 317 317 316 316 316 316 316 317 317 316 316 316 316 316 318 321 326 332 333 332 331 332 333 335 337 337 337 338 337 337 338 337 338 339 338 338 336 334 336 336 333 332 331 330 330 329 328 325 324 323 323 322 317 315 316 314 320 329 330 334 337 332 326 327 329 330 327 327 331 333 334 331 330 336 335 334 336 333 332 332 331 331 331 331
319 319 319 319 319 319 318 318 318 319 319 318 318 317 318 317 315 315 316 317 317 316 316 317 317 316 316 318 321 323 326 328 329 329 330 331 332 334 337 337 337 336 336 337 337 338 339 338 339 337 336 337 335 331 331 330 329 330 329 328 326 324 323 325 327 322 318 318 316 324 333 333 334 337 333 325 326 333 334 331 330 332 333 334 332 331 336 335 335 336 333 332 332 330 332 332 331
319 319 319 319 319 319 319 319 319 319 319 319 319 318 318 317 315 316 318 318 317 316 317 317 317 317 317 317 320 321 323 325 326 327 327 329 330 332 334 336 337 337 336 337 338 339 339 339 339 339 339 338 335 331 331 329 328 330 329 328 327 325 324 324 326 325 321 319 317 324 333 335 334 334 333 326 328 334 334 332 331 331 331 333 334 332 335 336 335 336 332 331 333 331 332 332 331
319 319 318 319 320 319 320 320 321 320 319 320 319 317 318 318 317 318 318 317 316 317 318 318 317 317 317 317 319 320 323 324 325 326 326 327 328 329 331 334 336 338 337 337 339 339 338 338 338 339 339 339 337 334 331 329 330 332 329 328 327 326 326 324 325 326 324 322 320 323 330 335 334 333 333 330 330 333 334 333 331 331 332 333 334 332 334 336 335 335 333 332 333 332 333 333 332
319 319 319 319 319 320 320 320 321 320 319 320 318 317 318 318 318 319 318 317 317 318 318 318 318 317 317 317 318 320 321 323 324 325 325 326 327 327 328 330 332 336 337 337 338 337 337 337 337 338 338 338 338 336 333 331 333 333 329 328 327 326 327 325 325 325 326 327 326 326 327 330 332 333 334 331 330 332 333 333 331 331 331 332 334 333 333 335 335 335 334 332 332 332 333 333 331
319 320 321 319 320 321 321 321 321 320 320 320 318 317 319 319 319 319 319 318 317 318 318 318 318 318 318 317 318 320 321 322 323 324 325 325 325 325 324 324 326 330 335 336 336 336 336 336 335 336 337 336 337 337 336 335 334 332 330 328 327 327 329 328 327 326 329 331 330 329 326 323 326 330 332 330 331 332 332 333 333 331 330 331 332 332 333 334 335 335 333 331 330 330 332 331 329
321 324 323 319 320 321 321 321 320 320 320 320 319 317 319 319 319 320 318 319 318 318 318 318 318 318 318 318 318 319 321 322 322 323 324 324 325 324 323 322 321 324 328 331 333 334 335 334 333 333 335 336 336 337 337 336 335 333 332 332 330 331 331 330 329 327 329 332 332 332 328 323 322 323 328 330 329 330 332 332 333 332 330 331 331 331 334 334 333 334 332 330 328 329 331 330 330
323 327 325 320 321 322 323 323 320 321 319 319 319 318 319 319 319 319 319 319 318 319 319 318 319 318 318 318 318 319 321 323 322 324 324 324 325 324 325 324 321 321 323 326 330 333 334 334 334 334 334 335 335 336 336 336 336 335 335 335 334 333 331 329 327 328 329 331 332 332 328 327 326 321 325 333 331 327 329 331 332 332 331 331 331 331 333 333 332 332 331 329 328 328 329 330 331
322 325 324 321 322 323 324 324 320 321 319 319 320 319 320 319 319 320 319 319 318 319 319 319 319 318 318 318 319 320 321 323 322 323 324 324 324 324 326 326 323 320 321 325 330 333 333 333 334 333 333 334 334 335 335 334 335 336 337 337 336 334 331 328 326 327 328 329 329 329 327 328 330 326 322 332 336 329 326 330 331 329 328 329 330 330 328 329 329 330 330 329 328 329 329 330 331
318 318 318 318 318 320 323 322 320 321 319 319 320 318 320 319 319 319 319 319 319 319 318 319 319 318 319 319 319 320 320 323 323 323 324 324 324 324 325 326 325 323 322 326 329 330 331 331 331 331 332 332 333 334 334 333 334 335 336 337 338 336 334 331 330 329 328 329 327 327 328 327 329 330 326 328 335 335 328 328 330 328 327 328 328 329 326 324 327 328 327 328 329 329 329 329 331
317 317 316 317 317 318 322 322 321 320 318 319 319 319 320 319 318 318 319 319 319 319 318 318 319 318 319 319 320 320 320 322 322 323 324 324 325 325 325 325 326 325 324 325 327 326 327 329 329 329 329 329 331 332 332 332 332 333 335 336 338 337 336 334 332 332 331 330 328 328 330 329 326 328 330 329 333 337 332 328 330 330 330 331 329 330 328 322 323 327 326 327 329 329 329 329 330
317 318 318 317 318 319 319 320 320 319 317 318 319 319 320 319 318 318 318 319 318 319 319 318 318 318 318 319 319 320 320 321 322 323 324 324 324 325 325 325 325 326 325 323 324 324 323 325 326 326 326 327 329 329 330 330 329 329 332 335 336 337 336 335 333 332 331 331 330 329 330 330 328 325 327 329 330 335 334 331 333 332 331 334 333 332 330 322 320 326 326 325 327 328 329 330 331
318 318 318 317 319 319 318 319 320 319 317 318 319 319 319 319 318 318 318 318 318 319 319 318 318 318 318 318 318 319 320 320 321 322 323 323 323 324 324 324 325 326 325 321 320 322 321 320 322 321 321 322 324 326 328 330 330 329 330 332 333 334 335 334 332 331 331 331 330 330 331 331 329 326 325 329 328 329 333 333 334 333 330 333 335 334 331 325 321 325 327 326 326 327 328 330 333
319 318 319 319 319 320 320 319 319 318 317 318 319 319 319 319 318 318 318 318 318 318 318 318 318 318 318 318 318 318 319 319 320 321 322 322 322 323 323 323 323 325 325 321 316 319 322 320 320 320 319 318 319 323 327 329 331 328 327 328 328 330 334 333 330 330 330 330 330 330 331 331 329 329 329 330 328 327 332 334 333 332 329 328 330 331 329 326 323 323 326 326 324 324 325 328 332
319 320 322 322 321 320 319 318 320 320 318 318 319 320 319 319 318 318 318 318 318 317 318 318 318 318 318 318 317 317 318 318 318 318 319 321 322 322 322 322 322 323 324 322 318 318 319 319 318 318 319 318 317 320 324 327 331 330 328 329 327 330 336 335 330 330 329 329 331 331 330 329 328 329 331 331 331 330 333 334 332 330 329 327 324 323 323 323 324 324 324 325 324 321 321 325 331
319 320 320 321 320 320 317 317 319 318 318 319 318 320 320 319 318 318 318 318 318 317 317 317 317 318 317 317 317 316 317 317 317 318 317 320 321 321 321 321 321 322 322 323 321 319 319 319 317 316 317 317 316 316 318 322 328 332 333 331 329 330 334 336 335 333 331 330 330 331 330 329 328 328 330 331 331 331 332 335 333 329 328 328 322 317 317 318 321 326 326 325 324 320 319 323 329
319 320 319 319 319 318 318 318 318 318 320 322 321 321 322 322 319 319 318 318 318 317 318 317 317 317 317 317 316 315 316 316 316 317 316 318 320 320 320 320 321 321 321 321 321 320 321 320 317 318 320 321 319 316 315 316 320 326 328 327 327 328 328 331 334 333 331 331 331 331 331 330 329 328 329 329 328 330 331 334 335 330 326 327 324 317 315 314 318 325 329 329 326 321 319 322 325
319 320 318 319 319 318 318 317 319 320 321 322 322 322 323 324 322 319 318 318 317 317 317 317 317 317 316 316 316 315 316 316 316 316 315 317 319 319 319 320 320 321 320 320 321 321 321 320 319 320 322 323 322 319 316 314 315 319 321 321 325 329 328 327 328 329 329 330 331 332 332 332 331 329 330 330 330 332 332 333 336 335 329 327 326 320 315 313 315 323 330 331 327 322 319 322 325
319 319 317 318 318 318 319 316 318 321 320 320 320 320 322 324 325 321 319 318 318 317 317 317 317 316 316 316 316 316 316 315 315 315 314 316 318 318 318 318 319 319 319 319 319 320 321 321 321 321 321 323 324 323 321 317 314 315 317 318 319 323 324 323 323 326 328 328 329 330 331 333 334 333 332 331 331 332 332 331 334 337 334 330 328 323 318 314 313 320 330 332 328 323 320 320 326
317 318 317 317 317 317 317 316 318 319 319 320 322 321 323 324 324 322 320 319 318 318 317 317 317 316 316 316 316 316 315 315 315 314 314 315 317 317 317 318 318 318 318 318 318 319 319 320 320 320 321 322 323 324 323 321 318 316 315 316 316 316 317 318 320 323 324 325 327 329 330 330 332 334 335 333 332 331 330 328 331 335 336 334 331 325 321 317 312 316 327 333 330 325 321 319 323
317 317 317 317 317 318 317 317 319 321 321 321 322 323 323 322 322 322 322 320 318 318 317 316 317 316 316 316 315 315 314 314 314 314 314 315 316 316 317 317 317 317 317 317 317 317 318 318 319 320 320 321 321 322 322 323 322 320 317 315 315 314 314 315 316 317 319 320 323 327 329 329 330 332 333 334 333 333 330 328 329 333 335 335 333 327 322 321 318 316 320 327 329 326 322 319 321
316 316 317 318 318 319 318 318 320 320 321 320 320 321 321 321 322 323 323 322 318 318 317 316 317 316 316 315 314 314 314 314 313 313 314 315 315 315 316 316 316 316 316 316 316 316 316 317 317 318 319 320 320 321 321 321 322 322 320 318 316 314 314 315 315 314 316 317 318 322 324 327 329 329 329 329 331 331 331 330 330 333 336 337 335 331 325 321 320 320 320 320 323 323 321 320 322
317 317 318 320 319 319 319 320 321 321 321 321 321 320 319 321 322 322 323 321 317 317 317 316 316 315 315 315 314 314 313 313 313 313 314 315 314 314 315 315 315 315 315 315 315 315 316 316 316 317 318 318 319 320 320 320 320 320 319 318 317 315 314 314 315 314 315 315 316 319 320 322 326 327 326 327 328 328 330 333 335 336 339 339 337 335 330 324 320 321 323 320 318 320 321 322 323
316 317 319 320 320 321 321 321 322 321 321 321 321 320 318 320 322 322 321 318 315 316 316 316 315 315 315 314 313 313 313 313 313 313 313 314 314 314 314 314 314 314 314 314 314 314 315 315 315 316 316 317 318 319 319 319 319 318 317 317 317 316 314 313 314 313 314 314 316 318 319 321 323 324 325 325 326 327 328 334 338 338 339 340 339 337 333 329 324 322 324 322 319 320 323 325 324
316 316 317 318 320 321 321 321 321 322 321 321 320 320 320 320 320 318 317 315 315 315 315 315 315 314 314 313 313 313 313 313 313 313 313 313 313 313 313 313 313 313 313 314 314 314 314 314 314 315 316 316 316 317 318 319 319 318 317 316 316 317 315 314 313 314 316 320 322 322 320 319 320 321 324 325 326 329 330 334 337 337 339 340 340 339 336 332 327 325 328 327 321 319 322 326 327
317 317 316 318 320 320 321 321 321 321 321 321 320 320 321 321 319 316 315 315 315 315 315 314 314 313 313 312 312 313 312 312 312 312 312 312 312 312 313 313 313 313 313 313 313 313 313 313 314 314 315 315 316 316 317 318 318 318 318 316 315 316 316 315 313 314 320 327 330 330 328 324 320 321 326 329 331 333 335 335 333 332 336 340 340 340 340 336 330 327 330 331 328 323 323 325 327
318 316 316 319 320 319 319 320 320 320 320 320 319 320 320 319 318 316 316 316 315 315 314 313 313 313 313 312 312 312 312 312 312 311 311 311 311 312 312 312 312 312 312 312 312 313 313 313 313 314 314 315 315 316 316 317 318 318 318 318 316 316 316 316 314 313 319 327 333 334 334 333 330 329 332 335 335 336 336 336 332 326 328 336 340 340 340 339 337 332 330 331 332 329 326 325 326
318 316 316 318 318 317 318 318 319 319 319 319 320 320 319 319 318 316 315 315 315 314 314 313 313 312 312 312 311 311 311 311 311 311 311 311 311 311 311 311 312 312 312 312 312 312 312 313 313 313 314 314 315 315 316 316 317 317 318 319 319 318 317 317 316 314 315 323 330 333 334 335 335 335 335 336 336 335 332 331 332 328 328 334 339 340 339 340 340 338 334 332 333 334 330 328 327
317 316 316 316 316 318 318 317 317 318 318 318 320 320 319 319 319 317 314 315 314 313 313 313 313 312 312 311 311 311 311 310 311 311 310 311 310 311 311 311 311 311 311 312 312 312 312 313 313 313 313 314 314 315 315 315 316 317 317 318 319 319 319 319 319 316 313 315 323 330 334 335 335 337 337 336 336 335 332 328 329 331 331 333 336 338 338 340 340 340 338 335 334 335 334 331 330
316 316 316 316 316 317 317 316 317 318 318 317 318 319 318 318 318 316 314 314 313 312 312 312 312 312 311 311 311 311 310 310 310 310 310 310 311 311 311 311 311 311 311 312 312 312 312 313 313 313 313 313 314 314 315 315 315 316 317 317 318 318 319 320 320 320 317 313 314 321 330 335 336 336 337 337 336 336 335 331 328 330 330 330 334 337 337 338 339 339 339 338 336 334 335 333 332
316 315 315 315 315 315 315 316 316 317 317 317 316 317 318 317 316 315 314 313 312 312 312 311 311 311 311 311 310 310 310 310 310 310 310 310 310 311 311 310 311 311 312 312 312 312 312 312 312 313 313 313 314 314 314 315 315 316 316 317 317 317 318 319 320 321 321 320 316 314 320 330 336 337 336 336 336 336 336 334 330 329 330 330 332 334 334 335 338 339 339 339 338 336 334 334 332
315 315 315 315 314 314 314 315 316 316 316 316 316 317 318 317 315 315 313 312 312 312 311 311 311 311 310 310 310 310 310 310 310 310 310 310 310 310 310 310 311 311 312 312 312 312 312 312 312 313 313 313 313 313 314 314 315 315 316 316 317 317 318 318 319 320 321 322 322 318 315 319 328 334 336 335 335 336 337 336 333 330 329 330 330 331 332 333 335 339 340 339 339 338 336 334 333
315 315 314 315 314 314 314 314 315 315 315 316 315 316 317 316 314 314 312 312 312 312 311 312 311 310 310 310 310 309 309 310 309 309 310 310 310 310 310 311 311 312 312 312 312 312 312 312 312 313 313 313 313 313 314 314 315 315 315 315 316 317 318 318 318 319 319 320 321 321 319 316 317 325 333 335 335 335 336 337 337 333 329 329 330 330 329 330 333 336 338 338 338 338 337 336 334
Wind_Speed
4 2 3 6 6 4 9 10 6 5 6 8 9 9 10 13 14 14 16 17 14 10 13 15 13 13 10 9 10 14 14 10 8 6 5 9 13 13 9 7 5 4 2 5 10 18 20 19 19 18 19 19 18 17 17 17 19 21 22 21 21 21 20 20 19 19 19 20 21 21 22 24 26 26 25 24 24 24 24 24 23 22 22 21 21 21 21 22 23 23 23 22 22 22 22 22 21
6 2 2 4 7 7 9 11 6 5 7 8 8 10 11 12 13 16 16 14 15 7 5 4 3 6 7 11 14 14 13 10 11 7 13 18 16 14 9 9 6 4 2 4 11 18 21 20 20 19 19 19 18 17 17 18 19 21 22 22 22 21 21 20 20 19 20 21 21 22 23 25 26 26 24 24 23 24 24 23 22 22 22 22 21 21 22 23 23 23 23 23 23 23 22 22 21
7 6 6 6 8 10 9 9 7 6 8 9 8 11 12 13 14 16 18 19 19 6 15 5 4 6 7 7 9 8 10 11 14 11 12 18 13 13 8 11 9 5 2 4 10 17 20 20 21 19 20 19 18 18 17 18 19 21 23 22 22 22 21 20 20 19 21 22 22 23 25 26 26 25 24 23 23 23 24 23 23 23 22 22 22 22 23 23 24 24 24 24 23 23 22 21 21
7 12 10 9 9 10 8 6 7 8 8 8 7 10 12 13 9 6 14 12 6 8 11 5 4 3 5 6 9 6 8 8 7 8 10 17 11 14 9 10 11 6 2 4 10 16 19 20 21 20 20 19 19 18 18 18 19 22 23 23 23 22 21 20 20 20 22 22 22 23 25 26 26 24 23 23 23 23 23 22 23 23 23 22 22 23 23 24 24 24 24 24 23 22 22 21 21
8 11 8 10 9 6 6 5 6 8 8 8 7 11 13 13 6 9 14 12 11 10 7 6 5 5 5 8 10 7 8 7 6 8 8 18 11 11 10 10 10 8 4 4 12 16 17 19 21 21 20 19 19 19 19 19 20 22 24 24 24 23 21 21 20 20 23 23 23 24 26 26 26 24 23 23 23 23 23 23 23 22 22 22 22 23 23 23 23 23 23 23 22 22 21 21 20
7 6 7 12 11 8 6 6 7 9 10 11 8 12 14 11 8 9 8 9 9 6 7 7 6 6 6 9 7 8 9 6 6 10 3 11 12 5 5 9 9 10 7 5 14 16 16 20 22 21 21 20 20 19 19 19 21 23 25 25 24 23 22 22 21 22 24 23 24 25 26 26 25 24 23 23 23 22 23 23 23 21 21 22 23 23 23 23 23 23 23 22 22 21 20 20 19
5 6 8 10 10 9 7 7 9 8 10 13 12 14 13 6 5 7 3 3 3 3 3 4 6 5 6 7 5 8 3 2 4 9 7 11 10 5 4 6 6 10 9 7 12 13 16 21 22 23 22 21 21 20 20 20 22 25 26 26 25 24 22 22 21 23 25 25 25 26 27 26 25 24 23 23 23 22 23 23 22 21 21 22 23 23 23 22 22 22 22 21 21 21 20 19 19
10 10 9 8 6 6 6 8 9 9 11 14 15 11 2 9 8 8 7 6 3 4 3 1 4 4 7 7 7 3 8 6 7 10 8 10 8 6 2 2 4 10 9 7 12 13 15 21 23 24 24 23 22 20 20 21 22 25 26 26 25 23 22 21 21 24 26 26 27 27 27 26 25 24 24 24 23 23 23 23 22 21 21 23 24 24 23 22 22 22 21 21 20 20 20 19 18
11 11 9 7 5 6 7 9 9 11 12 15 17 10 4 6 3 5 9 9 8 9 4 6 4 4 7 7 8 0 11 8 8 8 9 9 8 7 3 2 6 11 9 9 15 16 14 21 25 25 25 24 22 21 21 21 23 26 27 26 25 22 21 20 20 25 27 27 27 27 27 26 25 25 24 24 23 23 23 23 22 22 23 24 24 23 23 22 22 21 20 20 19 19 19 19 19
10 11 8 5 6 7 7 9 9 11 12 17 17 6 4 5 3 5 7 9 10 12 9 6 0 2 10 7 9 1 12 7 7 5 9 9 7 7 6 4 5 9 12 13 18 19 15 21 27 27 26 24 22 22 21 22 23 26 28 26 25 22 20 19 20 25 27 27 28 27 27 26 26 25 25 24 24 23 23 23 23 23 24 24 24 23 22 21 20 20 19 19 19 19 18 18 18
9 10 9 6 6 7 7 9 8 11 11 13 9 3 5 4 5 7 7 11 11 15 10 6 4 6 12 9 13 2 16 10 8 6 8 9 7 7 8 7 9 12 12 15 20 21 17 20 28 27 26 25 22 23 22 22 24 27 28 27 26 22 19 19 20 24 27 27 28 28 27 26 26 26 25 24 24 24 24 24 24 24 25 24 23 22 21 20 19 19 19 18 18 17 17 17 16
8 6 7 5 6 7 8 9 9 13 8 4 6 8 3 3 4 6 8 11 10 14 10 6 1 0 8 4 11 4 20 16 11 9 8 8 7 6 6 5 9 12 11 14 17 19 18 20 27 27 25 25 23 23 22 23 25 28 29 27 26 22 19 20 21 25 27 28 28 28 26 26 26 26 25 24 24 23 23 23 24 24 24 23 22 21 20 20 18 18 17 17 16 16 16 15 15
9 6 6 6 6 8 9 10 10 12 6 3 8 9 6 5 3 6 8 10 8 9 5 7 5 2 8 5 11 5 19 17 13 12 10 9 8 6 6 5 6 10 15 16 13 14 16 19 25 27 25 25 24 24 23 24 27 29 29 28 25 21 19 20 22 25 28 28 28 27 27 26 26 26 25 24 24 23 22 23 24 24 24 22 21 20 19 19 18 17 16 16 15 15 15 14 14
9 8 6 6 7 9 9 10 9 9 6 4 9 11 8 3 4 7 8 9 9 9 7 8 5 3 6 7 10 5 17 16 14 14 11 11 8 6 7 7 7 11 15 16 15 15 16 20 23 25 26 25 24 23 24 26 28 29 30 28 25 20 19 21 22 26 27 27 28 27 27 27 27 26 25 24 23 23 22 23 24 23 23 22 20 19 19 18 16 15 15 15 15 15 14 14 13
9 10 7 6 7 8 8 9 6 7 4 9 9 6 7 2 7 8 8 8 11 13 8 6 5 4 5 8 6 8 16 15 15 14 12 12 9 5 7 10 8 9 13 15 17 19 19 22 23 22 23 25 24 23 24 26 28 28 28 27 25 20 20 21 22 25 27 27 27 27 26 26 26 26 24 24 23 22 23 23 23 22 21 21 20 19 18 17 16 15 15 15 15 14 14 14 13
8 9 6 5 8 8 9 8 4 4 4 10 8 6 5 4 9 11 9 9 13 13 11 9 7 4 7 10 8 14 15 14 15 14 11 10 8 5 8 7 4 6 13 16 16 18 21 25 28 26 24 24 24 24 24 27 27 26 27 26 23 21 20 20 21 24 26 27 27 26 26 26 26 26 24 23 23 22 23 22 22 21 20 20 19 18 17 16 16 15 14 14 14 14 14 14 15
7 7 5 6 8 7 7 5 3 3 5 4 8 10 7 7 8 8 8 11 12 11 15 16 9 6 7 4 11 15 15 15 15 14 12 11 10 6 5 3 4 5 9 15 18 20 20 24 31 32 30 26 23 22 24 26 27 26 26 25 23 20 20 19 20 22 25 26 27 26 25 26 26 26 24 23 22 22 22 21 20 20 19 19 18 17 16 16 15 15 14 14 14 14 14 14 15
6 5 5 7 5 4 7 9 8 7 6 7 11 9 6 6 8 10 9 9 9 13 17 14 13 12 5 5 12 14 15 15 14 14 15 13 13 12 5 1 7 8 7 13 20 22 22 26 30 32 31 29 26 22 22 24 25 26 26 25 23 19 19 20 20 22 25 27 27 26 26 26 26 26 25 23 22 22 21 20 19 18 18 18 17 17 16 16 15 14 13 13 13 13 11 10 10
6 5 7 5 5 5 7 9 8 8 8 11 10 9 7 4 9 12 10 8 10 15 12 8 15 13 7 6 12 13 11 12 13 14 16 14 13 15 8 3 6 11 14 16 20 23 24 27 28 30 31 32 31 25 21 22 23 26 26 23 21 18 18 20 22 23 25 27 27 26 26 26 26 26 24 23 21 21 20 19 18 17 17 16 16 16 16 15 14 14 13 13 12 11 9 7 7
6 5 6 4 9 7 6 8 8 8 9 11 11 10 9 8 9 9 7 8 11 12 5 5 10 5 8 5 11 13 9 10 12 13 15 14 12 12 6 5 7 10 16 18 19 22 25 27 27 29 31 31 32 29 26 25 24 23 20 19 19 17 16 19 22 24 25 27 27 27 26 26 26 25 23 22 21 21 20 19 18 17 16 15 15 15 15 15 14 13 13 12 10 8 8 7 7
5 5 5 6 10 8 9 9 7 7 8 9 10 9 9 9 5 5 5 8 9 4 9 12 10 8 9 10 11 12 9 10 11 14 16 14 12 10 6 2 6 7 12 16 18 21 24 27 27 27 29 29 30 32 31 30 28 23 18 18 19 17 17 19 21 24 25 27 27 27 26 24 24 24 23 23 21 20 20 19 18 17 16 15 14 14 14 14 13 12 13 10 8 7 7 5 4
7 7 5 7 9 7 8 7 4 5 6 7 8 8 8 9 6 11 8 7 7 9 10 10 10 11 13 11 9 10 9 10 10 12 16 14 12 9 7 3 2 5 10 14 18 21 21 24 27 28 29 29 29 31 33 32 30 26 22 20 20 19 20 20 20 24 25 26 27 26 26 23 22 23 24 23 20 20 20 18 18 17 16 15 15 14 14 13 12 12 12 6 6 5 4 4 4
7 5 2 5 5 7 7 5 3 3 6 7 8 8 9 9 9 9 3 6 11 8 9 9 9 10 11 6 6 10 10 12 12 12 15 13 12 10 8 6 3 4 9 13 17 21 22 25 26 27 30 31 29 31 35 35 32 29 26 22 20 19 22 21 20 24 24 25 26 25 25 22 20 22 24 23 19 19 19 18 17 17 16 16 15 14 13 12 11 11 7 2 1 2 2 3 4
8 2 3 3 3 7 10 6 6 6 8 8 7 9 8 10 7 0 1 8 12 8 7 9 9 8 7 3 10 11 9 11 13 13 14 13 13 11 9 8 6 5 6 12 16 20 25 28 26 26 29 29 29 30 35 36 33 31 29 26 22 19 21 22 22 24 24 24 25 24 22 20 19 20 23 23 19 19 19 18 17 17 16 15 15 15 13 11 10 8 6 6 6 5 3 2 3
8 4 4 4 5 10 7 2 9 8 7 9 7 8 8 10 8 2 5 7 6 10 10 10 7 6 6 2 8 10 8 9 11 13 14 14 14 11 8 8 7 5 6 14 19 24 27 30 30 30 30 29 29 31 34 35 34 32 29 28 26 22 20 21 23 24 25 24 24 24 20 18 19 19 22 22 19 19 19 19 18 16 15 14 15 16 13 12 10 7 8 9 7 5 4 4 5
2 9 8 7 9 10 4 2 11 7 5 8 5 8 10 9 5 4 6 5 8 9 9 7 4 5 7 4 8 9 8 10 11 13 14 14 15 13 10 9 8 3 6 13 21 27 28 30 32 32 32 32 31 31 33 35 35 32 27 26 27 26 22 20 21 23 24 24 24 23 18 18 21 20 22 22 20 18 17 18 17 15 14 14 15 16 14 14 12 9 11 11 7 4 4 5 6
2 9 10 9 9 8 7 7 9 6 5 7 4 8 9 3 1 1 2 3 7 9 6 3 3 4 4 6 8 7 7 9 11 13 14 15 15 14 10 8 8 5 2 11 21 25 25 27 31 32 32 34 32 31 33 34 34 31 26 24 25 26 25 22 21 23 24 24 25 23 18 18 21 20 21 22 19 17 16 16 16 15 16 15 15 15 14 15 13 10 12 11 7 6 5 5 6
5 10 8 10 10 7 8 6 4 5 5 5 6 8 8 3 1 2 2 4 5 8 5 3 4 2 2 5 7 7 8 9 11 12 14 16 14 13 11 8 6 5 1 13 22 22 21 21 24 27 28 31 31 31 32 32 33 32 27 23 24 25 24 23 21 22 25 25 26 25 22 21 21 19 19 21 19 17 18 17 17 17 19 18 15 15 15 14 14 11 11 8 7 9 8 5 6
9 11 8 9 8 8 9 5 4 4 2 2 3 5 7 6 2 6 3 6 5 5 4 3 5 3 2 4 6 7 9 10 11 12 13 14 13 13 12 9 5 2 3 14 19 18 19 16 15 19 21 25 30 31 31 30 30 31 29 25 26 25 23 23 21 22 24 26 27 25 25 24 22 19 19 20 19 18 19 19 19 19 20 19 14 15 15 14 15 13 11 11 10 12 10 7 6
11 10 7 7 6 5 5 5 4 4 1 1 3 3 3 1 6 5 2 5 5 2 3 1 3 3 3 4 5 7 9 11 13 13 12 12 12 13 12 10 7 2 3 11 16 16 17 14 9 10 15 19 23 29 30 29 28 27 26 25 26 26 24 25 23 22 22 23 26 25 24 24 23 21 19 20 20 19 20 20 20 21 19 16 15 16 16 17 17 14 15 16 14 14 10 8 10
8 7 5 5 4 3 3 5 6 6 4 4 6 3 0 1 3 1 2 3 5 1 1 2 2 2 3 3 3 7 9 11 13 14 13 12 12 11 10 10 10 7 2 8 13 12 12 13 8 6 13 15 16 24 27 26 26 25 24 24 27 27 25 25 23 22 22 21 23 24 23 24 26 24 18 21 23 20 20 23 22 21 19 16 18 19 17 20 19 15 18 16 16 13 9 8 11
3 3 4 6 3 3 4 5 6 6 3 5 5 2 1 3 1 0 3 3 3 0 1 3 3 2 3 3 3 6 8 11 13 14 14 13 14 13 10 9 10 10 7 2 7 7 8 11 14 13 14 13 15 22 25 24 24 24 24 25 28 27 24 25 24 23 23 21 21 22 22 24 27 28 21 21 25 23 19 23 23 20 19 18 20 20 20 22 20 17 17 14 14 12 10 9 9
3 3 2 5 2 2 4 7 8 6 4 4 5 2 2 3 2 1 3 4 2 1 2 3 4 4 4 4 4 6 8 11 13 14 14 14 15 15 13 10 8 9 9 4 4 7 9 11 14 15 13 12 15 18 22 24 22 21 23 25 27 27 25 25 24 23 23 21 21 22 22 24 26 28 26 22 25 27 23 22 22 20 20 19 20 22 23 22 20 18 16 14 13 10 12 11 8
2 2 4 6 4 4 2 6 8 5 5 4 4 2 3 5 2 0 1 4 2 2 2 3 4 4 5 5 5 6 8 11 13 14 14 14 14 14 14 13 9 9 7 3 3 7 11 10 9 10 10 10 13 15 18 22 20 18 21 23 25 26 25 24 23 22 22 21 21 21 21 24 26 27 29 26 24 28 28 25 23 22 21 21 21 23 24 21 19 19 18 17 14 12 13 12 9
7 5 5 7 4 4 3 4 8 7 6 4 3 2 4 6 3 1 1 3 2 2 2 1 1 3 4 5 6 6 8 12 13 13 13 13 13 13 13 13 11 10 7 1 3 3 6 8 7 7 7 7 10 12 15 20 19 18 19 19 20 22 23 22 22 22 22 21 21 20 19 21 25 26 28 28 25 26 30 28 26 25 23 23 24 24 24 21 19 19 20 19 16 14 14 12 11
12 12 9 9 7 2 3 4 9 5 4 4 4 3 6 6 3 2 1 2 2 1 2 2 1 1 3 4 6 7 8 11 12 12 13 13 13 12 13 13 12 11 8 3 1 2 3 5 6 6 5 4 5 6 10 14 15 15 17 15 16 19 20 20 22 22 22 22 22 22 20 19 22 25 27 29 26 24 27 29 28 29 27 24 25 25 25 23 21 19 21 22 19 17 15 11 14
13 12 10 10 8 4 4 4 5 2 4 4 3 3 6 7 5 4 3 3 2 1 1 2 0 1 2 4 6 7 8 10 12 12 12 13 13 12 12 12 12 10 9 6 2 3 3 3 5 4 4 4 2 2 6 10 11 13 14 14 15 16 18 20 20 21 22 22 23 23 23 22 21 24 26 28 27 24 26 28 27 30 31 28 27 26 26 24 23 20 20 23 22 21 18 12 13
12 10 9 8 5 5 4 6 4 1 4 3 3 4 5 8 6 5 4 3 4 1 1 2 2 1 1 3 4 6 8 9 10 12 11 12 13 12 12 12 11 10 9 8 5 4 5 3 4 4 2 4 4 2 6 8 9 11 11 12 13 13 15 19 20 20 21 21 22 23 24 24 23 23 25 26 27 27 27 27 27 29 32 32 31 29 26 24 24 22 21 23 23 24 22 15 14
11 8 7 7 3 5 7 6 4 3 3 2 6 6 5 8 7 5 5 3 4 2 1 1 3 3 3 3 5 6 8 10 10 11 11 11 12 12 12 13 11 10 9 8 6 5 5 5 5 5 3 2 3 5 7 6 6 10 13 11 11 12 13 17 19 19 20 21 22 23 23 24 24 23 24 25 27 28 28 29 30 31 31 34 35 33 29 25 24 25 24 24 23 25 24 19 17
9 6 4 4 4 5 5 2 4 5 5 5 4 5 4 8 7 5 6 5 5 4 2 2 1 1 2 3 6 7 8 10 10 11 12 11 11 12 12 13 12 9 9 9 8 6 5 5 6 8 7 5 3 5 7 8 7 10 13 12 10 11 11 12 16 18 19 21 22 23 23 24 26 25 24 24 27 29 28 29 33 33 30 31 35 37 35 30 26 25 27 26 24 24 24 22 20
7 9 6 6 5 7 7 4 6 6 7 6 4 4 4 6 8 7 5 5 6 5 4 3 3 2 0 1 5 7 9 10 10 11 12 11 10 11 11 12 11 10 9 9 9 8 6 6 6 8 9 8 5 4 5 8 10 10 11 11 11 12 12 11 14 17 19 20 21 22 23 24 25 26 25 25 27 29 27 27 30 35 33 29 30 35 37 35 30 26 27 28 26 25 23 22 22
6 8 9 10 10 10 11 11 8 5 5 3 3 3 2 3 7 8 5 5 6 6 5 3 2 1 2 2 4 7 8 10 10 11 13 11 10 11 11 12 11 10 10 10 9 9 7 6 7 7 7 9 8 4 4 6 10 11 11 12 13 14 14 13 13 14 15 16 18 19 20 22 24 26 26 26 27 29 29 27 27 33 35 31 29 31 34 35 33 29 27 28 27 26 23 21 22
6 5 7 10 10 11 14 13 5 2 6 2 2 3 2 3 5 7 7 6 6 4 3 2 2 1 4 5 6 8 8 10 9 10 13 11 10 12 12 12 12 10 10 10 9 9 8 8 7 6 5 6 8 8 5 4 8 12 13 13 15 16 15 14 13 12 12 12 13 15 17 19 21 23 23 24 27 28 29 28 26 28 31 31 30 30 32 34 34 32 28 28 28 27 25 23 22
6 7 8 10 12 12 13 13 5 3 4 1 4 6 3 1 4 5 8 7 7 5 2 1 1 1 3 4 8 10 8 9 9 11 14 10 10 13 13 12 12 12 12 12 11 10 9 8 8 7 6 4 5 7 8 6 6 11 14 16 17 18 19 17 15 13 12 12 12 13 15 17 19 21 22 22 25 27 28 28 27 27 28 30 30 29 30 31 34 34 29 27 28 28 28 26 23
7 11 12 11 13 14 12 11 7 2 1 1 4 7 2 2 2 4 5 7 9 6 3 3 1 0 2 5 8 10 9 9 9 12 13 10 10 13 13 13 13 12 14 15 13 12 10 10 9 9 8 5 4 4 7 9 8 10 13 16 18 19 20 19 17 15 14 13 13 13 14 16 18 21 22 23 25 28 29 29 30 29 28 29 29 28 28 29 32 34 32 29 28 29 29 27 24
7 10 12 11 11 12 11 7 5 4 1 3 3 3 2 2 3 3 2 5 7 6 4 2 2 2 5 7 7 9 9 9 10 12 12 9 11 13 12 13 14 14 15 15 14 14 13 13 12 10 9 8 6 6 6 7 9 11 12 14 17 18 20 19 18 17 16 14 15 15 15 15 16 18 21 23 26 28 30 31 30 30 29 29 30 28 27 28 29 31 33 33 31 29 28 27 26
9 9 9 10 8 7 7 4 2 3 3 5 5 9 7 2 2 1 1 5 8 6 5 2 3 2 3 4 6 9 11 11 12 13 12 10 13 13 12 14 15 14 15 14 15 16 16 16 14 13 12 10 10 9 8 7 8 10 12 14 15 16 18 20 20 20 19 18 18 17 16 15 14 15 18 22 25 26 28 30 31 30 28 28 28 27 26 27 28 27 28 31 32 30 28 27 27
8 7 5 6 6 4 3 2 2 1 4 6 7 10 4 3 1 4 7 8 7 5 5 4 2 2 3 5 9 10 9 12 14 13 12 13 14 14 13 14 15 15 16 16 17 17 16 17 16 15 14 13 11 12 13 12 11 12 13 15 17 16 16 19 22 23 22 22 22 20 20 21 19 18 19 22 25 25 28 32 35 33 30 27 27 25 25 27 28 27 26 26 29 29 28 28 29
6 6 4 4 5 4 2 2 1 1 4 6 11 12 4 6 4 8 9 6 7 5 5 4 2 5 8 11 14 13 11 12 13 12 13 15 15 15 15 15 16 17 18 18 19 18 17 18 18 18 17 15 13 12 14 16 16 16 16 16 18 18 16 18 22 24 23 23 23 22 23 23 26 28 26 25 25 25 29 35 38 35 31 28 26 25 25 27 28 28 27 26 27 29 30 29 30
7 6 5 5 4 4 3 2 2 1 2 5 12 11 2 4 4 7 10 8 6 4 4 6 7 8 12 13 11 12 13 13 13 13 14 15 16 15 15 16 17 18 19 19 20 19 18 19 19 19 19 18 16 14 13 16 19 19 19 18 19 19 17 17 20 22 22 22 21 23 24 25 29 34 33 30 28 29 33 35 35 33 31 29 27 26 25 26 28 28 27 26 27 30 32 32 31
6 6 6 5 4 4 3 2 2 3 3 6 10 7 2 3 4 8 8 7 5 4 7 10 10 9 10 12 11 10 12 13 14 14 15 15 16 17 16 17 18 18 19 21 21 20 20 20 20 20 19 19 18 17 14 14 18 21 22 21 20 20 19 18 19 20 22 23 23 24 26 27 30 36 40 38 33 31 32 31 29 28 28 29 29 28 26 26 28 29 28 26 27 29 32 34 34
4 6 5 2 1 5 4 3 4 4 3 4 3 0 2 5 6 5 6 7 6 6 9 11 11 12 10 10 14 15 14 16 17 17 18 17 17 18 18 19 19 20 21 22 22 21 21 21 20 20 20 19 18 18 17 15 16 18 21 22 21 20 20 20 21 21 23 26 27 26 27 28 30 34 39 39 33 29 29 26 25 25 25 27 29 31 29 28 27 29 30 29 28 28 31 33 34
4 5 5 4 5 6 4 4 4 4 4 2 2 4 2 4 3 2 5 6 4 5 8 8 8 14 18 16 16 16 16 17 18 18 18 18 18 18 19 19 20 21 22 22 22 21 21 21 21 20 20 20 19 18 19 18 17 17 19 20 21 20 20 20 21 23 24 27 29 29 28 29 30 31 34 34 33 34 33 29 26 26 26 26 28 30 31 30 28 29 30 31 30 29 30 32 32
5 5 6 8 6 3 3 3 3 4 3 1 5 6 2 2 2 3 5 6 7 7 10 11 10 16 18 16 16 16 16 17 18 18 18 18 18 18 19 20 21 22 22 22 23 22 21 21 21 21 20 20 20 19 19 19 18 19 19 19 19 19 20 20 21 23 25 27 30 32 31 31 31 31 30 30 32 35 37 35 31 28 28 27 27 29 30 30 29 28 28 30 32 30 30 31 31
2 5 6 6 4 4 4 3 3 4 4 2 4 8 4 3 4 3 7 8 8 8 9 12 15 13 12 13 16 16 17 18 18 18 19 19 19 19 20 21 21 22 22 23 23 23 22 22 21 21 21 20 20 20 19 20 19 19 20 20 19 19 20 20 20 22 24 27 30 33 34 32 31 31 31 29 30 33 35 36 35 32 30 30 29 29 30 30 30 29 29 29 31 32 32 32 32
2 4 3 4 4 4 5 3 3 4 3 4 2 3 4 4 4 4 7 8 9 10 10 9 10 12 15 17 17 16 17 18 17 17 18 18 19 20 21 21 21 22 22 23 24 24 23 23 22 21 21 21 21 20 20 20 20 20 20 21 21 21 22 21 21 21 23 25 28 32 35 35 31 30 31 30 31 33 34 35 36 35 33 31 31 31 31 29 29 30 30 30 31 32 33 33 33
5 4 4 5 4 4 4 2 2 4 4 4 5 2 3 4 3 5 9 8 8 9 10 8 9 14 17 17 16 16 17 17 15 16 18 19 20 21 22 21 21 21 22 23 24 24 23 23 23 22 22 21 20 20 20 19 20 20 20 21 21 21 22 23 24 24 23 24 26 29 33 37 35 31 30 30 32 33 33 34 36 37 36 34 32 32 32 29 29 31 31 31 32 32 33 34 33
4 4 5 5 6 6 5 2 3 4 4 3 4 3 3 4 3 6 8 7 9 10 11 11 13 16 16 16 17 16 17 17 14 15 18 20 20 22 21 21 21 22 22 24 24 24 23 23 23 23 23 22 21 21 21 20 20 21 22 22 22 22 21 22 25 26 26 26 26 27 29 33 37 36 32 31 32 34 34 35 36 37 38 38 34 32 32 30 30 31 32 32 34 34 33 33 33
Wind_Direction
168 147 168 171 181 236 244 221 228 218 225 245 245 249 247 243 246 252 254 264 262 252 256 267 295 296 304 338 328 329 335 331 335 345 78 114 132 124 120 133 140 141 161 125 156 185 182 179 176 172 168 165 166 163 168 172 173 169 165 160 154 149 142 138 138 140 137 137 138 135 134 134 134 133 132 130 128 127 125 123 117 113 112 111 110 108 108 108 108 108 108 107 106 107 107 109 109
153 116 258 215 213 246 234 207 232 235 221 240 240 242 251 250 251 251 246 251 257 310 352 232 325 325 332 347 328 327 320 302 310 325 98 99 99 98 110 122 140 153 182 142 145 181 185 184 179 176 172 168 170 168 173 177 178 173 167 162 156 150 144 141 142 142 139 139 140 137 137 137 137 135 134 132 130 129 127 124 117 115 114 113 111 110 109 108 108 108 108 107 107 107 108 109 108
172 158 215 239 218 235 240 211 229 245 237 243 242 236 236 237 243 257 258 245 241 353 42 75 57 8 340 327 306 298 285 277 275 261 115 96 100 103 120 127 138 167 182 157 149 174 185 188 183 178 176 172 173 173 177 180 181 176 169 164 157 152 146 143 144 143 141 142 142 140 140 140 139 137 135 133 132 130 129 125 119 117 115 114 113 111 110 108 109 108 108 108 108 108 108 108 106
190 160 180 223 217 222 238 230 229 241 250 248 257 246 240 240 232 293 302 272 218 55 50 47 40 5 321 297 299 289 268 264 266 260 113 88 107 122 123 132 138 164 174 169 161 172 184 189 186 183 179 175 175 175 180 183 184 178 171 166 159 154 148 147 146 144 144 145 144 143 143 142 142 139 137 135 133 132 130 126 121 119 117 116 115 113 112 110 110 109 108 108 108 108 108 107 105
173 162 192 229 225 221 224 234 236 238 248 250 264 259 267 285 312 28 10 12 45 48 38 28 354 331 310 270 281 274 276 279 21 9 93 76 79 123 117 129 133 151 163 165 166 175 184 188 188 187 184 180 178 177 181 183 185 181 173 168 162 156 151 151 149 146 147 147 146 146 146 145 144 141 139 137 135 134 131 127 124 122 119 119 118 116 114 113 111 110 109 108 108 108 107 107 106
150 169 225 234 247 275 253 235 238 239 245 251 264 268 277 298 339 20 30 11 13 17 14 16 347 344 316 276 263 243 274 282 43 30 8 38 47 79 88 128 137 152 170 169 169 179 186 188 189 189 187 183 180 178 181 183 185 182 176 170 164 159 155 155 153 151 149 148 148 148 148 147 145 143 142 139 137 136 132 129 127 125 124 122 121 119 117 116 114 112 110 108 107 107 106 106 106
212 229 214 221 251 268 259 248 245 245 244 245 246 259 281 313 5 11 349 330 345 332 356 6 339 346 313 294 272 238 257 345 17 33 343 345 20 22 49 134 146 156 178 183 183 190 182 187 189 189 190 184 180 179 182 184 185 183 177 172 166 161 158 157 155 154 153 149 149 151 150 149 147 145 144 142 140 138 133 131 130 129 127 126 124 123 120 118 116 113 111 109 106 105 103 103 103
242 245 218 212 239 232 239 252 251 258 255 253 254 248 34 41 16 1 330 331 345 339 62 120 281 260 268 264 253 229 90 56 357 17 359 337 352 352 1 192 167 157 175 183 199 201 180 189 189 188 190 184 180 179 182 184 183 182 178 173 168 163 159 159 158 158 156 151 150 152 152 150 149 147 147 144 143 139 135 132 132 132 130 128 126 125 122 120 118 115 112 109 106 103 100 98 98
231 238 233 226 241 236 238 247 245 254 259 264 269 265 131 99 8 329 310 312 308 304 289 250 213 182 286 284 257 55 78 51 18 6 356 349 339 332 308 177 150 162 180 181 199 204 188 193 189 187 187 183 180 178 182 183 182 181 178 175 169 163 162 161 161 161 158 154 152 153 154 152 150 149 149 147 145 140 135 134 133 135 132 130 128 126 124 121 119 115 112 108 105 102 98 94 92
225 225 237 238 242 250 247 247 249 245 247 252 251 278 358 79 21 314 303 302 298 291 283 281 280 232 289 300 273 86 86 54 40 6 352 353 333 326 291 238 199 199 201 191 202 210 203 198 190 185 184 181 180 179 184 183 182 180 178 176 170 164 163 164 164 164 161 156 153 154 155 153 152 151 151 149 147 142 137 135 135 136 134 132 130 128 126 123 120 115 112 108 104 102 97 93 90
227 215 235 259 247 251 253 251 256 249 246 255 246 54 3 24 345 318 318 297 292 288 279 271 274 264 265 256 259 169 86 64 52 26 354 348 329 326 309 280 233 220 215 205 211 216 210 200 191 184 180 180 180 181 184 183 181 179 179 176 171 166 164 166 167 167 164 160 155 155 156 154 154 152 153 151 148 144 139 137 138 138 136 135 134 131 128 125 122 117 114 109 105 102 97 92 88
241 218 221 243 253 254 262 263 261 258 263 324 14 35 342 36 355 316 309 291 285 280 277 275 283 167 265 249 244 205 72 52 38 25 0 351 333 315 312 292 237 219 207 201 208 212 209 202 190 183 179 180 182 183 184 182 180 178 179 177 172 168 167 169 168 169 165 162 158 156 157 156 155 154 154 152 149 146 142 141 141 141 140 139 138 135 132 129 125 121 117 112 107 102 97 92 87
243 249 230 237 253 259 267 269 267 265 272 38 69 64 46 57 2 330 323 316 320 300 360 9 11 61 271 293 257 250 58 43 25 17 1 353 341 317 302 286 247 209 198 199 193 187 198 202 191 185 179 180 184 184 183 181 180 179 180 177 174 173 173 172 169 171 167 163 160 157 158 158 157 156 155 152 149 147 145 146 145 145 145 144 143 140 137 133 130 125 120 114 109 103 97 90 86
241 251 260 267 265 266 267 265 281 286 287 45 77 78 60 28 316 349 332 315 307 289 24 26 328 342 284 282 268 323 37 28 20 11 357 349 337 322 292 258 233 215 215 216 203 189 194 197 190 187 181 182 186 184 184 182 180 180 181 178 176 178 178 174 171 171 168 164 162 160 160 159 159 157 155 153 150 148 147 148 148 149 149 148 148 146 142 138 134 130 124 117 110 103 95 88 81
266 265 272 278 275 272 268 261 267 276 282 71 60 39 49 341 293 305 287 282 276 275 336 357 266 283 281 271 280 29 26 16 13 359 355 345 329 321 272 241 234 231 223 215 206 199 198 195 188 186 186 184 183 182 183 182 182 181 182 180 178 181 178 174 174 172 168 165 163 162 161 160 160 158 157 155 151 149 148 149 150 151 151 152 153 151 148 143 140 134 127 119 111 103 94 83 72
270 280 284 265 266 262 262 260 224 264 317 71 58 6 7 299 282 280 271 270 276 284 304 284 237 239 271 285 344 27 17 5 3 351 349 339 330 306 256 236 233 222 207 201 189 184 190 192 185 184 187 183 178 180 183 181 182 183 183 183 183 182 178 175 175 173 169 167 165 163 162 163 162 160 159 158 153 151 152 151 151 152 154 156 156 155 151 148 144 138 131 122 112 105 95 79 68
265 263 267 258 257 258 284 309 44 4 316 14 39 34 10 322 308 296 279 261 268 284 277 263 241 243 266 319 14 18 7 356 354 347 343 341 346 321 261 243 255 233 198 194 180 176 184 186 185 184 181 179 177 178 181 181 180 183 185 185 188 184 178 175 173 175 172 169 167 165 165 165 165 163 163 162 157 156 157 155 154 155 156 158 158 157 154 153 148 141 134 123 116 109 95 77 68
262 247 246 258 267 305 350 13 25 11 318 337 11 13 344 320 316 311 296 262 258 264 255 250 247 247 252 33 21 11 6 356 350 351 353 350 351 355 359 200 255 250 205 196 186 181 181 182 189 186 177 176 176 174 179 181 178 183 186 186 189 184 177 175 173 176 175 172 169 168 168 169 169 167 165 165 164 161 161 160 159 157 159 160 159 159 157 156 150 144 136 125 119 109 95 77 63
250 258 251 267 357 355 7 17 9 6 342 341 338 318 324 326 296 294 300 293 289 275 248 238 250 224 153 70 30 23 12 360 358 0 1 356 353 2 12 159 232 239 209 201 192 187 184 181 187 184 178 176 173 173 179 181 179 183 185 182 183 181 177 176 175 178 178 175 172 171 172 173 172 170 167 170 171 167 165 164 163 161 163 162 161 162 159 157 153 146 136 125 120 102 81 61 39
250 246 256 334 4 347 34 16 356 12 349 333 315 313 316 299 282 269 290 293 280 286 315 5 284 218 110 46 32 32 18 12 7 7 8 6 7 14 24 163 194 218 205 200 196 196 193 187 185 180 176 175 170 170 176 180 181 183 182 176 178 179 177 179 178 179 181 178 173 175 177 175 175 173 170 175 177 173 170 169 168 167 166 167 167 165 162 161 155 148 134 120 114 87 54 37 15
281 262 285 359 348 336 43 11 350 14 343 331 312 303 295 307 336 269 283 279 259 330 20 22 343 334 5 336 356 14 18 22 6 8 12 12 19 28 34 166 191 201 205 202 197 200 198 190 187 181 176 176 172 168 171 177 177 179 180 177 180 183 180 180 180 179 181 181 177 179 180 177 178 177 175 180 182 179 176 174 174 173 172 173 172 169 167 163 158 151 138 114 88 64 49 50 38
286 268 308 355 326 318 42 16 2 25 321 303 279 276 309 329 317 262 253 257 275 33 24 6 353 330 335 321 342 8 17 20 5 9 11 15 26 22 21 11 206 198 206 197 191 197 196 188 186 183 178 177 176 169 168 173 173 173 178 181 186 186 182 179 179 180 183 184 181 182 183 179 181 181 182 185 183 183 183 179 179 177 177 178 176 174 169 166 164 154 140 107 61 61 73 94 95
280 254 332 331 311 313 346 341 335 360 287 279 280 295 326 311 278 268 264 266 286 13 26 352 338 314 331 348 47 30 22 20 8 11 14 20 23 10 8 3 319 236 214 198 190 192 191 188 188 186 180 177 176 172 168 170 171 172 173 177 187 187 180 177 178 181 186 187 185 187 185 181 185 188 189 190 185 188 188 184 183 182 182 183 180 176 171 167 159 150 151 161 110 133 141 108 102
273 217 100 321 351 297 288 304 303 294 278 273 281 290 300 284 275 326 235 262 281 336 0 330 318 314 330 61 81 45 26 22 10 13 17 20 19 10 4 3 349 311 226 201 200 197 193 190 187 185 180 176 176 174 171 171 170 171 169 168 177 184 181 180 179 182 187 189 190 189 187 186 189 195 196 192 189 192 193 191 188 188 188 187 186 178 171 171 158 153 182 199 180 164 157 109 102
261 295 27 337 301 268 254 321 283 261 263 268 258 266 264 263 280 327 267 274 319 336 317 297 310 335 307 259 69 48 45 33 22 24 24 25 23 16 8 11 356 304 208 193 196 191 190 189 185 183 180 179 179 177 174 172 168 168 168 165 169 178 184 184 181 184 187 189 194 190 190 190 190 203 205 196 194 194 196 197 192 193 192 189 195 181 173 185 177 182 194 183 175 160 166 148 106
254 296 319 306 283 288 295 265 270 259 253 268 249 257 254 240 266 297 270 321 359 317 291 295 323 335 316 348 28 30 52 41 30 33 31 32 25 20 17 13 6 324 195 193 188 180 184 187 184 181 181 182 182 181 179 174 169 167 169 168 171 177 181 182 182 189 189 191 195 190 195 195 191 207 212 201 199 197 198 200 191 193 196 194 203 183 176 191 179 192 192 168 168 155 159 161 118
2 294 308 292 276 293 287 246 263 281 264 259 242 271 278 225 157 278 224 21 345 290 281 321 289 286 328 26 30 18 42 40 34 39 38 36 27 20 16 9 21 31 192 189 177 174 181 184 182 179 180 184 182 184 183 178 172 169 170 170 173 179 180 181 186 193 192 192 190 187 199 204 199 208 216 206 200 199 199 201 190 194 200 192 205 194 180 191 183 191 183 163 185 183 153 149 121
300 294 293 274 260 243 253 251 260 268 257 236 232 282 299 273 210 66 13 350 310 294 330 353 293 296 352 24 34 24 32 36 32 39 43 43 36 24 13 7 31 39 182 183 176 175 178 182 186 184 184 184 182 184 185 182 177 170 170 171 171 178 182 184 192 196 195 197 192 190 197 203 205 209 223 214 199 202 204 206 196 199 204 186 201 207 181 189 194 190 180 182 203 170 151 140 119
274 281 271 265 259 227 221 239 274 267 267 199 228 289 280 257 81 76 355 323 301 300 8 357 301 332 47 41 47 41 38 43 39 42 48 49 45 36 21 8 19 52 175 189 187 180 177 181 192 192 192 187 182 185 185 185 182 173 172 174 172 177 183 185 193 198 197 200 199 201 200 196 199 204 226 220 202 207 208 210 207 208 208 183 195 208 185 195 198 191 195 207 194 152 150 166 144
265 267 259 264 270 249 203 199 249 250 194 154 256 276 252 221 75 73 327 319 305 315 52 353 299 337 30 51 63 60 48 42 43 45 48 54 52 40 25 10 3 358 183 194 196 189 188 197 202 191 191 187 180 181 184 185 185 180 178 179 177 177 181 184 191 198 199 202 202 207 204 195 196 198 216 218 204 212 213 214 215 212 206 187 195 197 194 206 191 192 207 203 189 156 150 171 152
272 273 272 284 281 280 235 202 231 240 167 170 246 272 357 52 74 52 282 297 297 350 68 300 343 14 20 39 57 63 53 41 44 45 44 51 56 43 21 6 2 355 335 198 200 207 211 214 223 202 185 187 183 181 183 186 187 189 186 185 182 178 180 184 187 193 197 203 206 209 208 202 203 199 209 220 207 208 216 218 221 216 205 199 202 188 197 212 188 196 217 204 196 179 161 166 153
339 339 314 304 315 310 275 234 244 261 198 180 227 273 237 223 128 250 273 274 272 332 345 319 350 7 360 358 29 53 50 42 44 45 41 43 51 52 34 8 1 1 355 255 207 222 226 213 214 210 198 195 191 185 184 186 188 193 194 191 189 184 183 183 184 192 197 203 209 213 213 208 208 203 206 224 216 208 213 219 222 221 212 212 211 193 197 210 192 199 217 202 205 200 184 178 155
33 55 264 267 279 312 288 266 258 253 246 232 223 233 181 177 159 234 269 273 254 75 37 343 334 348 343 332 18 44 44 45 44 44 42 40 45 52 49 30 4 2 7 345 236 206 194 195 205 210 217 212 196 188 188 191 192 195 200 197 194 190 187 186 186 194 199 202 205 210 214 209 208 205 202 217 223 214 211 215 217 217 217 217 217 208 204 207 196 199 205 192 203 204 189 192 169
261 191 234 249 203 176 237 276 262 230 236 246 211 211 125 145 175 196 276 284 274 89 61 328 325 342 330 326 6 35 44 45 44 42 42 41 44 49 53 48 22 9 17 1 215 186 182 191 206 209 227 231 211 200 194 197 201 204 207 202 197 194 190 190 190 195 200 203 205 208 213 212 210 208 203 209 221 220 214 211 213 213 217 220 220 219 215 207 197 202 203 192 198 196 187 198 187
309 300 284 283 254 158 111 258 245 233 238 225 198 226 152 140 129 89 16 326 313 125 120 300 339 350 338 354 6 14 38 46 46 43 42 43 45 47 50 53 42 26 27 54 178 165 184 197 208 211 230 242 221 215 206 203 207 213 216 211 205 199 194 193 193 196 203 206 210 210 212 216 216 213 208 207 212 220 219 214 214 213 213 219 221 224 222 209 198 206 208 196 195 191 186 198 194
313 309 304 301 303 13 54 251 229 228 266 247 226 209 146 132 128 151 130 12 351 71 156 219 169 36 360 31 32 21 32 46 50 45 43 44 44 47 49 53 53 41 38 40 223 206 200 203 205 208 221 235 223 231 220 210 214 219 220 219 215 207 201 200 198 199 204 207 211 212 214 219 221 219 215 212 210 214 218 218 220 215 208 212 217 220 223 213 199 208 213 200 194 190 181 193 206
305 304 303 302 311 360 21 276 235 207 272 262 236 211 151 156 179 171 165 150 112 41 242 241 159 89 350 12 31 31 33 40 49 48 44 44 43 44 44 50 56 48 41 36 351 274 265 220 203 201 203 197 188 277 241 219 223 228 227 227 228 222 211 206 205 205 207 208 210 213 217 219 222 223 221 220 218 214 211 215 225 224 213 209 211 214 220 216 203 207 217 206 198 193 179 177 204
303 298 297 296 316 343 307 269 275 242 248 229 193 230 171 160 181 169 176 171 121 102 262 271 290 272 340 350 359 19 36 36 42 49 45 43 41 38 38 43 51 49 33 27 23 334 312 277 217 213 224 199 175 234 238 211 209 218 228 238 245 249 232 217 214 214 213 211 211 213 216 218 221 222 223 224 225 221 211 209 222 230 223 215 212 212 213 213 207 207 217 213 204 200 190 182 198
300 296 302 303 316 318 297 276 282 256 246 224 187 207 169 157 177 173 181 183 141 159 206 279 287 300 325 341 352 3 29 33 32 43 43 42 41 33 33 36 43 49 30 13 24 17 339 314 263 236 247 259 231 231 215 180 178 201 210 225 243 256 249 229 222 222 219 215 215 215 214 218 219 219 224 228 228 225 215 209 218 228 230 224 220 219 216 209 206 210 217 217 209 205 200 195 206
298 305 319 295 253 269 293 269 258 251 250 257 211 199 170 159 168 172 181 177 156 158 134 99 74 12 308 336 7 5 23 29 23 33 36 36 40 33 28 32 37 42 30 15 15 21 8 338 304 268 257 265 273 250 215 187 183 197 203 212 227 243 251 236 225 222 220 217 216 215 214 217 219 217 222 227 230 228 217 213 221 228 232 231 226 225 224 216 206 211 219 219 212 210 205 199 207
310 324 319 299 283 287 306 288 260 248 237 261 260 216 179 160 173 176 173 170 157 157 155 124 85 73 299 30 32 12 20 26 15 22 27 26 36 33 22 25 31 31 27 20 9 7 5 351 333 310 295 286 279 263 236 218 209 203 208 221 228 237 247 244 228 218 216 216 212 212 213 215 218 219 220 224 229 232 225 217 224 231 233 235 231 225 227 225 212 210 220 220 214 213 209 203 207
316 325 309 316 324 309 302 294 288 271 251 302 325 239 207 198 192 168 156 178 167 164 165 126 91 39 338 8 37 17 15 18 11 16 17 16 28 28 17 16 23 24 21 15 7 6 0 343 341 347 337 314 302 289 260 242 232 222 216 228 239 243 245 244 235 225 222 220 215 213 213 213 217 219 221 224 229 233 231 223 221 229 232 233 232 226 226 227 218 214 219 219 215 214 210 206 210
307 312 293 303 306 296 292 294 312 289 260 251 134 207 231 270 236 174 165 182 164 152 153 136 158 101 353 344 0 4 8 8 6 13 10 8 19 19 13 9 10 12 11 11 11 6 359 350 348 356 1 332 320 317 302 261 244 244 237 237 245 248 250 248 240 233 229 223 218 217 215 216 218 220 221 224 228 231 231 227 220 223 229 231 230 227 225 225 220 216 218 219 217 216 210 205 211
303 310 304 292 287 290 288 286 279 235 264 249 203 236 211 213 265 195 167 172 161 148 158 208 201 89 5 344 345 345 358 3 2 9 2 2 16 11 4 1 2 1 357 1 5 3 360 356 352 347 351 349 332 323 313 292 257 250 249 248 249 250 253 253 248 239 231 223 214 213 217 221 221 220 221 223 227 230 229 230 227 223 225 229 230 227 223 224 221 214 215 219 219 219 215 208 210
293 307 309 300 295 294 289 287 290 294 2 326 262 268 245 149 225 201 176 180 163 149 184 238 276 41 356 7 350 336 348 359 0 4 355 360 15 3 357 355 355 354 351 355 357 357 355 350 346 343 342 343 329 308 306 302 286 262 252 250 253 257 257 253 251 249 243 233 223 215 213 222 225 222 220 221 226 228 227 232 236 229 223 225 229 229 224 223 222 216 212 214 216 217 218 213 212
302 310 304 303 307 304 301 303 323 358 352 256 236 238 243 148 171 187 189 184 164 159 179 208 298 325 14 14 346 334 348 357 1 358 348 2 11 357 353 350 348 350 349 352 353 349 348 343 341 340 335 331 319 301 295 296 291 282 268 254 251 258 264 262 255 253 252 247 242 230 216 215 222 224 225 226 227 227 225 228 234 232 225 223 227 229 227 223 223 222 216 214 216 217 218 217 216
328 322 307 313 318 308 302 293 347 6 285 266 234 219 230 235 202 224 224 182 174 175 154 145 279 320 10 350 339 347 354 355 356 352 345 2 5 351 348 347 346 348 346 348 347 344 343 339 336 334 331 328 321 310 299 288 282 282 279 269 257 250 257 264 264 262 261 263 263 255 243 238 232 226 228 230 230 229 226 224 226 228 225 224 227 228 228 226 224 226 224 220 220 220 221 220 219
349 327 320 335 320 292 283 276 59 36 269 281 262 242 229 95 178 219 212 189 156 145 140 161 207 360 344 347 4 354 350 353 348 345 349 359 357 346 345 346 343 342 344 346 344 341 339 335 332 328 325 324 319 314 308 298 286 277 274 273 269 259 251 256 265 267 266 268 267 259 253 254 255 249 241 236 232 229 228 225 223 222 220 222 229 230 227 227 226 226 227 225 222 220 221 221 221
350 322 319 339 318 314 345 329 49 160 247 275 282 284 22 81 183 189 173 134 98 118 144 138 59 12 0 8 1 338 345 355 341 345 354 352 349 343 341 344 341 338 339 340 338 336 333 330 328 325 321 318 313 311 310 305 297 287 276 270 270 269 260 252 258 261 260 262 260 256 250 246 250 254 249 243 240 235 232 231 227 223 218 219 230 235 229 225 225 226 228 228 222 216 216 219 221
330 324 313 324 324 323 342 343 6 342 251 275 287 287 59 116 176 128 114 108 115 146 105 51 19 15 10 360 335 324 345 342 328 343 349 344 344 338 337 340 339 336 335 335 334 331 328 327 327 323 320 317 312 306 305 305 303 296 285 274 269 272 268 255 250 249 247 247 246 246 246 241 246 250 246 242 241 236 231 230 230 228 223 220 227 236 235 226 221 222 226 229 225 218 216 217 219
330 324 312 342 352 316 329 7 352 325 275 279 286 274 187 144 116 103 119 137 127 87 51 31 10 6 355 334 325 341 348 331 330 340 338 339 341 335 337 339 335 334 332 331 331 329 325 323 322 320 317 316 313 308 304 299 297 298 294 286 273 270 270 261 251 242 236 238 239 240 239 236 242 245 240 235 233 229 226 225 228 231 230 227 229 235 238 233 224 219 220 226 229 224 220 220 220
334 316 320 18 242 268 299 305 272 273 265 272 290 299 138 134 123 125 135 108 66 32 30 21 353 335 330 341 359 359 343 335 339 335 330 334 334 333 337 336 333 332 330 328 327 326 325 321 318 317 315 313 311 308 305 297 291 294 296 295 285 273 268 263 256 245 233 231 236 241 241 237 237 239 236 232 230 231 232 230 228 232 235 233 234 236 238 237 232 226 221 222 228 229 226 225 223
323 318 345 330 268 265 297 295 272 268 268 272 84 82 101 125 103 70 91 75 24 359 5 352 336 345 350 0 6 352 336 335 334 328 328 331 332 335 335 332 330 329 326 326 324 323 323 320 317 315 313 310 308 305 303 299 292 288 286 291 291 282 272 265 258 252 241 232 230 235 240 238 237 239 238 235 233 236 240 239 235 235 237 235 235 237 237 237 236 233 228 223 223 227 229 229 228
331 336 346 325 305 322 325 306 311 304 291 257 138 140 155 141 108 30 46 27 354 355 346 336 3 13 356 347 351 346 337 337 334 328 329 330 333 335 332 330 329 325 324 324 323 322 321 318 316 313 310 307 306 303 302 298 294 290 285 283 284 282 277 268 260 256 250 240 233 231 234 236 237 239 241 238 234 235 238 240 240 237 236 236 236 237 236 236 236 236 235 229 223 222 226 228 229
360 325 329 328 339 357 334 324 333 321 321 328 141 139 127 107 115 52 29 15 350 347 347 356 9 3 344 344 348 343 337 336 333 327 326 330 334 335 332 330 326 324 325 324 322 321 319 317 315 311 308 306 304 301 298 295 290 288 287 282 278 276 276 271 264 259 255 249 241 235 233 235 236 237 238 236 234 233 234 236 237 236 235 236 237 237 236 236 236 236 237 234 227 222 223 226 228
353 316 338 351 341 330 326 337 327 312 311 315 332 105 85 66 67 32 26 10 343 343 353 8 2 346 353 359 347 337 335 331 329 330 332 334 336 334 331 327 325 326 326 325 323 320 318 318 315 312 310 307 304 301 298 296 291 287 285 283 279 276 274 271 266 260 256 253 248 242 237 236 237 238 238 237 235 233 231 231 233 233 233 233 233 236 236 235 235 234 235 235 231 226 223 224 227
351 350 17 357 340 336 323 326 360 328 314 315 326 354 90 70 3 6 26 2 338 351 356 354 359 359 360 351 335 332 332 328 334 342 339 335 333 330 326 323 325 327 327 325 323 320 318 318 316 314 312 309 307 305 301 298 295 290 285 280 277 276 275 273 270 264 257 253 249 245 241 239 239 240 240 239 238 235 230 229 231 232 232 232 233 235 235 233 232 232 233 234 233 230 225 224 225
358 7 21 353 355 2 322 318 48 350 318 320 315 314 84 75 349 1 17 340 328 359 2 351 356 359 352 336 329 333 332 332 345 350 339 333 331 326 323 323 325 327 327 326 324 322 319 318 317 316 314 311 309 306 303 299 295 292 288 283 277 273 270 270 272 270 264 257 251 247 244 242 241 240 240 240 240 238 232 228 229 232 234 234 234 234 233 231 231 231 232 233 232 231 228 226 225